Regional Weather Roundup
Issued by NWS

Home | Current Version | Previous Version | Text Only | Print | Product List | Glossary Off
Versions: 1 2 3 4 5 6 7 8 9 10 11 12 13 14 15 16 17 18 19 20 21 22 23 24 25 26 27 28 29 30 31 32 33 34 35 36 37 38 39 40 41 42 43 44 45 46 47 48 49 50

000
ASUS45 KTFX 192319
RWRMT
MONTANA HOURLY WEATHER ROUNDUP
NATIONAL WEATHER SERVICE GREAT FALLS MT
519 PM MDT SUN OCT 19 2014

NOTE: "FAIR" INDICATES FEW OR NO CLOUDS BELOW 12000 FEET WITH NO
SIGNIFICANT WEATHER AND/OR OBSTRUCTIONS TO VISIBILITY.

* THESE STATIONS ARE NOT UNDER NWS QUALITY CONTROL. THEY DO NOT
   REPORT WEATHER SUCH AS PRECIPITATION OR FOG.

MTZ001>007-043-200000-
WEST OF THE DIVIDE
CITY           SKY/WX    TMP DP  RH WIND       PRES   REMARKS
KALISPELL      CLEAR     66  43  43 VRB5      29.93F
MISSOULA       CLEAR     64  41  43 W5        29.93F
BUTTE          CLEAR     68  28  22 NW3       30.02F
MULLAN PASS    PTCLDY    57  39  51 CALM      30.01S
* ESSEX        N/A       59  42  53 S3         N/A
* LINCOLN      N/A       70  32  25 W6G14      N/A
* POLSON       N/A       62  44  52 N2         N/A
* RONAN APT    CLEAR     64  45  50 NW5        N/A
* SEELEY LAKE  N/A       70  35  28 SE3G8      N/A
* THOMP F APT  PTCLDY    62  24  23 S6G16      N/A
$$

MTZ008-052>055-200000-
SOUTHWEST MONTANA
CITY           SKY/WX    TMP DP  RH WIND       PRES   REMARKS
BOZEMAN        CLEAR     70  37  30 CALM      30.00F
DILLON         CLEAR     72  30  21 NE5       30.00F
W YELLOWSTONE  CLEAR     59  14  17 SW10      30.14F
* THREE FORKS  CLEAR     68  45  44 N/A        N/A
* BOULDER HILL N/A       65  31  28 SW12       N/A
* MONIDA PASS  N/A       59  26  28 SE13G20    N/A
* RAYNOLDS PAS N/A       64  42  45 SE8G15     N/A
* WHITEHALL    N/A       70  34  27 E4         N/A
* WISE RIVER   N/A       66  29  25 SE7        N/A
$$

MTZ009>010-012-014-046-048-049-054-200000-
EAST SLOPES AND CENTRAL MONTANA
CITY           SKY/WX    TMP DP  RH WIND       PRES   REMARKS
CUT BANK       PTCLDY    72  34  25 W15       29.88S
GREAT FALLS    CLEAR     72  30  21 SW18      29.90S
HELENA         CLEAR     70  37  30 E12       29.95F
MALMSTROM AFB  CLEAR     73  32  22 SW10      29.91S
* CONRAD       CLEAR     75  30  19 N/A        N/A
* DEARBORN     N/A       74  31  21 S9G16      N/A
* EAST GLACIER N/A       63  35  35 W12G20     N/A
* MONARCH      N/A       66  23  19 SW9        N/A
* PENDROY      N/A       75  33  22 SE4        N/A
* ROGERS PASS  N/A       64  26  24 SE15G20    N/A
* SAINT MARY   N/A       66  33  29 S8G22      N/A
* SWEET GRASS  N/A       70  31  24 S15        N/A
* WHITE SULPH  N/A       69  25  19 SW8G18     N/A
$$

MTZ011-013-016-021-035-040-045-047-050-051-200000-
NORTH CENTRAL MONTANA
CITY           SKY/WX    TMP DP  RH WIND       PRES   REMARKS
HAVRE          PTCLDY    72  37  28 SE3       29.89S
LEWISTOWN      CLEAR     72  36  27 SW13      29.96S
* CHINOOK      PTCLDY    70  43  38 E7        29.90S
* FORT BENTON  CLEAR     75  37  25 SE5       29.88F
* CHESTER      N/A       71  36  28 SE5G10     N/A
* DENTON       N/A       74  39  28 SE10       N/A
* GEYSER       N/A       73  37  27 SE6        N/A
* JUDITH GAP   N/A       67  38  35 S11G16     N/A
* LOMA         N/A       72  41  33 NE9        N/A
$$

MTZ017>020-022>027-061-062-200000-
NORTHEAST MONTANA
CITY           SKY/WX    TMP DP  RH WIND       PRES   REMARKS
GLASGOW        PTCLDY    66  43  43 SE9       29.95S
GLENDIVE       CLEAR     68  37  32 S3        30.01S
JORDAN         CLEAR     72  37  28 S8        29.96S
SIDNEY         CLEAR     66  43  43 CALM      30.00S
WOLF POINT     PTCLDY    66  41  40 CALM      29.97S
* BEAVER HILL  N/A       67  36  32 NW2        N/A
* CIRCLE       N/A       69  46  44 N/A        N/A
* LINDSAY DVD  N/A       69  32  25 SW1        N/A
* NAVAJO       N/A       68  37  32 S11        N/A
$$

MTZ028>042-056>058-200000-
SOUTHCENTRAL AND SOUTHEAST MONTANA
CITY           SKY/WX    TMP DP  RH WIND       PRES   REMARKS
BAKER          CLEAR     68  34  28 N5        30.03S
BILLINGS       FAIR      72  30  21 CALM      29.98F
LIVINGSTON     CLEAR     73  30  20 NW8       29.99S
MILES CITY     CLEAR     72  39  30 E6        29.98F
* LAUREL APT   CLEAR     73  32  22 S6         N/A
* ROUNDUP APT  CLEAR     73  34  24 N/A        N/A
* ALZADA       N/A       69  38  32 NW6        N/A
* HYSHAM       N/A       69  33  26 SE4        N/A
* LAME DEER    N/A       69  35  29 SW3        N/A
* REED POINT   N/A       69  32  25 SE6        N/A
* ROSCOE HILL  N/A       66  26  22 E7         N/A
$$

REGIONAL REPORTS...DAKOTAS
CITY           SKY/WX    TMP DP  RH WIND       PRES   REMARKS
WILLISTON      CLEAR     68  39  35 S7        29.98S
DICKINSON      CLEAR     66  39  37 N5        29.99S
BEACH          N/A       66  37  34 N5        30.02S
CROSBY         CLEAR     66  34  31 SW5       29.97S
TIOGA          CLEAR     66  32  28 W5        30.01S
BISMARCK       CLEAR     70  37  30 NW9       29.96S
GRAND FORKS    FAIR      63  45  52 N3        29.85R
FARGO          CLEAR     64  43  47 N13       29.85R
BUFFALO SD     CLEAR     70  36  29 N7        29.97S
RAPID CITY     CLEAR     70  41  35 N8        30.04R
$$

REGIONAL REPORTS...WYOMING/IDAHO/WASHINGTON
CITY           SKY/WX    TMP DP  RH WIND       PRES   REMARKS
GILLETTE       CLEAR     70  37  30 SE9       30.05S
SHERIDAN       CLEAR     73  30  20 VRB3      30.02S
CODY           CLEAR    N/A N/A N/A SE12      30.03S
YELLOWSTONE LA CLEAR     57  16  20 VRB5      30.22S
MULLAN PASS    PTCLDY    57  39  51 CALM      30.01S
SAND POINT     PTCLDY    63  50  63 E5        29.87F
SPOKANE        MOCLDY    68  46  45 NE9       29.83F
$$

REGIONAL REPORTS...ALBERTA
CITY           SKY/WX    TMP DP  RH WIND       PRES   REMARKS
CALGARY        MOCLDY    61  36  39 W5        29.77S
LETHBRIDGE     MOCLDY    68  39  35 W16G25    29.82S
MEDICINE HAT   MOCLDY    72  37  28 S8        29.82F
EDMONTON       MOCLDY    57  37  47 SE15      29.66F
WATERTON GATE  N/A       64  34  33 SW18G28    N/A
CARDSTON       N/A       68  36  31 SW8        N/A
$$

REGIONAL REPORTS...SASKATCHEWAN
CITY           SKY/WX    TMP DP  RH WIND       PRES   REMARKS
SWIFT CURRENT  PTCLDY    64  39  40 S6        29.89F
MOOSE JAW      MOCLDY    66  46  49 SE3       29.93S
REGINA         FAIR      61  43  52 SW7       29.94R
VAL MARIE      N/A       66  41  40 S10        N/A
ASSINIBOIA     N/A       64  39  40 SW5        N/A

$$



USA.gov is the U.S. government's official web portal to all federal, state and local government web resources and services.